Coeur d'Alene, ID

8:26 PM PDT on October 23, 2017 (GMT -0700)
Coeur D'Alene

Weather History for KCOE - February, 2014

Change the Weather History Date:

Monday, February 17, 2014

  Actual Average Record
Temperature  
Mean Temperature 38 °F -  
Max Temperature 44 °F 37 °F 55 °F (2007)
Min Temperature 33 °F 23 °F 3 °F (2006)
Degree Days  
Heating Degree Days 26    
Moisture  
Dew Point 30 °F    
Average Humidity 70    
Maximum Humidity 87    
Minimum Humidity 53    
Precipitation  
Precipitation 0.02 in - - ()
Sea Level Pressure  
Sea Level Pressure 29.70 in    
Wind  
Wind Speed 18 mph (SW)    
Max Wind Speed 28 mph    
Max Gust Speed 40 mph    
Visibility 10 miles    
Events      
Averages and records for this station are not official NWS values.
T = Trace of Precipitation, MM = Missing Value Source: NWS Daily Summary

Daily Weather History Graph

Daily Weather History Graph

Search for Another Location

Airport or City:

Trip Planner

Search our weather history database for the weather conditions in past years. The results will help you decide how hot, cold, wet, or windy it might be!

Date:

Astronomy

Feb. 17, 2014 Rise Set
Actual Time 6:49 AM PST 5:13 PM PST
Civil Twilight 6:17 AM PST 5:45 PM PST
Nautical Twilight 5:41 AM PST 6:21 PM PST
Astronomical Twilight 5:06 AM PST 6:57 PM PST
Moon 8:29 PM PST (2/17) 7:38 AM PST (2/17)
Length of Visible Light 11h 27m
Length of Day
10h 23m
Waning Gibbous, 93% of the Moon is Illuminated
Feb 17
Waning Gibbous
Feb 22
Last Quarter
Mar 1
New
Mar 8
First Quarter
Mar 16
Full

Hourly Weather History & Observations

Time (PST) Temp. Windchill Dew Point Humidity Pressure Visibility Wind Dir Wind Speed Gust Speed Precip Events Conditions
12:15 AM 41.0 °F 34.7 °F 24.8 °F 53% 29.78 in 10.0 mi South 10.4 mph - N/A   Overcast
12:35 AM 41.0 °F 30.7 °F 26.6 °F 57% 29.78 in 10.0 mi SSW 25.3 mph - N/A   Overcast
12:55 AM 42.8 °F 32.9 °F 26.6 °F 53% 29.77 in 10.0 mi SW 26.5 mph 40.3 mph N/A   Overcast
1:15 AM 39.2 °F 29.8 °F 28.4 °F 65% 29.78 in 10.0 mi SW 18.4 mph - N/A   Overcast
1:35 AM 41.0 °F 30.9 °F 28.4 °F 61% 29.75 in 10.0 mi SSW 24.2 mph 33.4 mph N/A   Overcast
1:55 AM 41.0 °F 30.9 °F 28.4 °F 61% 29.74 in 10.0 mi SSW 24.2 mph 36.8 mph N/A   Overcast
2:15 AM 42.8 °F 32.9 °F 28.4 °F 57% 29.73 in 10.0 mi SSW 26.5 mph 38.0 mph N/A   Overcast
2:35 AM 41.0 °F 32.2 °F 28.4 °F 61% 29.73 in 10.0 mi SSW 18.4 mph 31.1 mph N/A   Overcast
2:55 AM 42.8 °F 34.3 °F 28.4 °F 57% 29.72 in 10.0 mi SSW 19.6 mph 27.6 mph N/A   Overcast
3:15 AM 41.0 °F 31.9 °F 28.4 °F 61% 29.72 in 10.0 mi SSW 19.6 mph 28.8 mph N/A   Overcast
3:35 AM 39.2 °F 28.3 °F 28.4 °F 65% 29.71 in 10.0 mi SSW 25.3 mph 33.4 mph N/A   Overcast
3:55 AM 39.2 °F 29.3 °F 30.2 °F 70% 29.72 in 10.0 mi SSW 20.7 mph 27.6 mph N/A   Overcast
4:15 AM 37.4 °F 27.8 °F 30.2 °F 75% 29.71 in 10.0 mi SSW 17.3 mph 24.2 mph N/A   Overcast
4:35 AM 39.2 °F 29.0 °F 30.2 °F 70% 29.70 in 10.0 mi SSW 21.9 mph 27.6 mph N/A   Overcast
4:55 AM 39.2 °F 30.2 °F 30.2 °F 70% 29.70 in 10.0 mi SSW 17.3 mph 31.1 mph N/A   Overcast
5:15 AM 39.2 °F 29.3 °F 30.2 °F 70% 29.70 in 10.0 mi SSW 20.7 mph 26.5 mph N/A   Overcast
5:35 AM 37.4 °F 27.5 °F 30.2 °F 75% 29.70 in 10.0 mi South 18.4 mph 21.9 mph N/A   Overcast
5:55 AM 39.2 °F 29.0 °F 30.2 °F 70% 29.70 in 10.0 mi SSW 21.9 mph 31.1 mph N/A   Overcast
6:15 AM 39.2 °F 30.8 °F 32.0 °F 75% 29.70 in 10.0 mi SW 15.0 mph 29.9 mph N/A   Overcast
6:35 AM 39.2 °F 29.0 °F 30.2 °F 70% 29.70 in 10.0 mi SW 21.9 mph 28.8 mph N/A   Overcast
6:55 AM 39.2 °F 29.6 °F 32.0 °F 75% 29.69 in 10.0 mi WSW 19.6 mph 35.7 mph N/A   Overcast
7:15 AM 39.2 °F 29.8 °F 32.0 °F 75% 29.69 in 10.0 mi WSW 18.4 mph 27.6 mph N/A   Overcast
7:35 AM 39.2 °F 34.2 °F 32.0 °F 75% 29.69 in 10.0 mi SW 6.9 mph - N/A   Overcast
7:55 AM 39.2 °F 33.6 °F 32.0 °F 75% 29.69 in 10.0 mi South 8.1 mph - N/A   Overcast
8:15 AM 41.0 °F 31.9 °F 30.2 °F 65% 29.68 in 10.0 mi WSW 19.6 mph 32.2 mph N/A   Overcast
8:35 AM 41.0 °F 31.9 °F 30.2 °F 65% 29.67 in 10.0 mi WSW 19.6 mph 31.1 mph N/A   Overcast
8:55 AM 42.8 °F 32.9 °F 30.2 °F 61% 29.66 in 10.0 mi WSW 26.5 mph 33.4 mph N/A   Overcast
9:15 AM 39.2 °F 28.5 °F 32.0 °F 75% 29.67 in 10.0 mi WSW 24.2 mph 29.9 mph N/A   Overcast
9:35 AM 39.2 °F 33.0 °F 32.0 °F 75% 29.68 in 10.0 mi SSW 9.2 mph - N/A   Overcast
9:55 AM 39.2 °F 34.2 °F 33.8 °F 81% 29.67 in 10.0 mi South 6.9 mph - N/A   Overcast
10:15 AM 39.2 °F 32.5 °F 32.0 °F 75% 29.66 in 10.0 mi SSW 10.4 mph - N/A   Overcast
10:35 AM 39.2 °F 30.2 °F 33.8 °F 81% 29.66 in 10.0 mi WSW 17.3 mph 26.5 mph N/A   Overcast
10:55 AM 37.4 °F 30.3 °F 33.8 °F 87% 29.66 in 10.0 mi SSW 10.4 mph 19.6 mph 0.01 in   Overcast
11:15 AM 37.4 °F 31.4 °F 33.8 °F 87% 29.66 in 10.0 mi SSW 8.1 mph - N/A   Overcast
11:35 AM 37.4 °F 31.4 °F 33.8 °F 87% 29.65 in 10.0 mi South 8.1 mph - N/A   Overcast
11:55 AM 39.2 °F 34.2 °F 33.8 °F 81% 29.65 in 10.0 mi SW 6.9 mph - N/A   Overcast
12:15 PM 39.2 °F 31.2 °F 35.6 °F 87% 29.64 in 9.0 mi SW 13.8 mph - N/A   Overcast
12:35 PM 41.0 °F 33.5 °F 35.6 °F 81% 29.63 in 10.0 mi SW 13.8 mph 21.9 mph N/A   Overcast
12:55 PM 41.0 °F 31.4 °F 33.8 °F 76% 29.63 in 10.0 mi SW 21.9 mph 28.8 mph N/A   Overcast
1:15 PM 41.0 °F 31.9 °F 35.6 °F 81% 29.63 in 10.0 mi SW 19.6 mph 25.3 mph N/A   Overcast
1:35 PM 42.8 °F 35.8 °F 35.6 °F 76% 29.62 in 10.0 mi WSW 13.8 mph 18.4 mph N/A   Overcast
1:55 PM 42.8 °F 34.3 °F 35.6 °F 76% 29.61 in 10.0 mi WSW 19.6 mph 23.0 mph N/A   Overcast
2:15 PM 42.8 °F 34.3 °F 35.6 °F 76% 29.61 in 10.0 mi WSW 19.6 mph 25.3 mph N/A   Overcast
2:35 PM 42.8 °F 34.0 °F 35.6 °F 76% 29.61 in 10.0 mi SW 20.7 mph 32.2 mph N/A   Overcast
2:55 PM 42.8 °F 35.1 °F 35.6 °F 76% 29.61 in 10.0 mi WSW 16.1 mph 28.8 mph 0.01 in   Overcast
3:15 PM 42.8 °F 34.0 °F 35.6 °F 76% 29.61 in 10.0 mi WSW 20.7 mph 33.4 mph N/A   Mostly Cloudy
3:35 PM 42.8 °F 34.8 °F 35.6 °F 76% 29.62 in 10.0 mi WSW 17.3 mph 23.0 mph N/A   Mostly Cloudy
3:55 PM 44.6 °F 35.9 °F 35.6 °F 71% 29.63 in 10.0 mi WSW 23.0 mph 29.9 mph N/A   Mostly Cloudy
4:15 PM 42.8 °F 32.7 °F 33.8 °F 70% 29.63 in 10.0 mi WSW 27.6 mph 32.2 mph N/A   Mostly Cloudy
4:35 PM 42.8 °F 34.5 °F 33.8 °F 70% 29.65 in 10.0 mi West 18.4 mph 35.7 mph N/A   Mostly Cloudy
4:55 PM 41.0 °F 32.8 °F 33.8 °F 76% 29.65 in 10.0 mi WSW 16.1 mph 26.5 mph N/A   Mostly Cloudy
5:15 PM 39.2 °F 30.5 °F 32.0 °F 75% 29.66 in 10.0 mi WSW 16.1 mph - N/A   Partly Cloudy
5:35 PM 41.0 °F 32.8 °F 30.2 °F 65% 29.68 in 10.0 mi WSW 16.1 mph 26.5 mph N/A   Clear
5:55 PM 39.2 °F 30.5 °F 28.4 °F 65% 29.68 in 10.0 mi WSW 16.1 mph 26.5 mph N/A   Partly Cloudy
6:15 PM 39.2 °F 29.8 °F 28.4 °F 65% 29.69 in 10.0 mi WSW 18.4 mph - N/A   Mostly Cloudy
6:35 PM 39.2 °F 30.2 °F 26.6 °F 61% 29.70 in 10.0 mi WSW 17.3 mph - N/A   Partly Cloudy
6:55 PM 39.2 °F 29.0 °F 26.6 °F 61% 29.71 in 10.0 mi WSW 21.9 mph 26.5 mph N/A   Scattered Clouds
7:15 PM 39.2 °F 29.3 °F 26.6 °F 61% 29.71 in 10.0 mi WSW 20.7 mph 31.1 mph N/A   Clear
7:35 PM 39.2 °F 29.8 °F 26.6 °F 61% 29.71 in 10.0 mi WSW 18.4 mph 24.2 mph N/A   Partly Cloudy
7:55 PM 37.4 °F 27.8 °F 26.6 °F 65% 29.72 in 10.0 mi WSW 17.3 mph 27.6 mph N/A   Scattered Clouds
8:15 PM 37.4 °F 27.2 °F 26.6 °F 65% 29.74 in 10.0 mi WSW 19.6 mph 26.5 mph N/A   Clear
8:35 PM 37.4 °F 27.2 °F 26.6 °F 65% 29.75 in 10.0 mi WSW 19.6 mph 26.5 mph N/A   Partly Cloudy
8:55 PM 37.4 °F 28.5 °F 26.6 °F 65% 29.77 in 10.0 mi WSW 15.0 mph 23.0 mph N/A   Partly Cloudy
9:15 PM 37.4 °F 29.3 °F 26.6 °F 65% 29.79 in 10.0 mi West 12.7 mph - N/A   Mostly Cloudy
9:35 PM 35.6 °F 27.1 °F 26.6 °F 70% 29.79 in 10.0 mi West 12.7 mph - N/A   Overcast
9:55 PM 35.6 °F 27.1 °F 26.6 °F 70% 29.81 in 10.0 mi WSW 12.7 mph - N/A   Overcast
10:15 PM 35.6 °F 27.5 °F 24.8 °F 65% 29.81 in 10.0 mi West 11.5 mph - N/A   Overcast
10:35 PM 35.6 °F 27.1 °F 26.6 °F 70% 29.82 in 10.0 mi West 12.7 mph - N/A   Overcast
10:55 PM 33.8 °F 24.8 °F 26.6 °F 75% 29.83 in 10.0 mi West 12.7 mph - N/A   Mostly Cloudy
11:15 PM 35.6 °F 25.9 °F 26.6 °F 70% 29.84 in 10.0 mi WSW 16.1 mph 20.7 mph N/A   Mostly Cloudy
11:35 PM 33.8 °F 23.2 °F 26.6 °F 75% 29.85 in 10.0 mi WSW 17.3 mph 23.0 mph N/A   Partly Cloudy
11:55 PM 33.8 °F 24.3 °F 26.6 °F 75% 29.87 in 10.0 mi WSW 13.8 mph - N/A   Scattered Clouds